Simultaneous Nadir Overpasses (SNOs) Predictions

Prediction of SNOs between AQUA and NPP Satellite Orbit:

Table of predicted SNOs for the next 14.0 days since TLE Epoch: 5/18/2012
Index Date (AQUA) Time (AQUA) Lat,Lon (AQUA) SZA (AQUA ) Date (NPP) Time (NPP) Lat,Lon (NPP) SZA (NPP ) Distance(km) Time Diff (sec)
1 05/18/2012 15:43:55 77.44,-172.03 76.00 05/18/2012 15:44:26 77.44,-172.01 75.97 0.56 31
2 05/21/2012 07:11:07 -76.91, 134.16 103.88 05/21/2012 07:10:47 -76.90, 134.15 103.86 0.32 20
3 05/21/2012 08:00:19 77.52, -55.80 75.36 05/21/2012 08:01:17 77.51, -55.92 75.34 3.00 58
4 05/23/2012 22:38:16 76.31, 80.38 76.35 05/23/2012 22:37:06 76.31, 80.37 76.41 0.17 70
5 05/23/2012 23:27:26 -77.15,-109.03 104.67 05/23/2012 23:27:33 -77.15,-109.07 104.66 1.07 7
6 05/26/2012 14:54:32 76.73,-162.33 75.41 05/26/2012 14:53:49 76.73,-162.28 75.43 1.54 43
7 05/26/2012 15:43:43 -77.51, 8.26 105.55 05/26/2012 15:44:17 -77.51, 8.30 105.59 1.06 34
8 05/29/2012 07:10:51 76.97, -45.57 74.72 05/29/2012 07:10:36 76.97, -45.58 74.73 0.12 15
9 05/29/2012 08:00:04 -77.65, 124.73 106.13 05/29/2012 08:01:06 -77.65, 124.73 106.18 0.22 62
10 05/31/2012 22:38:03 -76.32, -99.56 104.86 05/31/2012 22:36:59 -76.32, -99.60 104.80 0.99 64




NCC Satellite Simultaneous Nadir Overpasses (SNOs) Prediction Service
